CW2433 Weather Reports


Display with metric or nautical units.
time (UTC)temp
F
wind
direction
speed
MPH
gust
MPH
rain 1hr
in
rain 24hr
in
rain mn
in
humidity
%
barometer
mb
20180926070509 51 261 0.0 2.0 0.00 0.44 0.00 82 1023.5
20180926070010 51 245 0.0 2.0 0.00 0.44 0.00 82 1023.5
20180926065510 51 237 1.0 2.0 0.00 0.44 0.00 82 1023.5
20180926065010 51 250 0.0 3.0 0.00 0.44 0.00 82 1023.2
20180926064510 51 251 0.0 3.0 0.00 0.44 0.00 82 1023.2
20180926064010 51 209 0.0 2.0 0.00 0.44 0.00 82 1023.1
20180926063510 51 207 0.0 2.0 0.00 0.44 0.00 83 1023.1
20180926063010 51 202 0.0 2.0 0.00 0.44 0.00 83 1023.1
20180926062510 51 226 0.0 3.0 0.00 0.44 0.00 83 1023.1
20180926062010 51 232 0.0 3.0 0.00 0.44 0.00 83 1023.1
20180926061510 51 222 0.0 1.0 0.00 0.44 0.00 83 1023.1
20180926061010 51 222 0.0 1.0 0.00 0.44 0.00 83 1023.1
20180926060510 51 224 0.0 1.0 0.00 0.44 0.00 83 1023.1
20180926060010 51 230 0.0 1.0 0.00 0.44 0.00 83 1023.1
20180926055510 51 231 0.0 3.0 0.00 0.44 0.00 83 1023.1
20180926055010 50 231 0.0 3.0 0.00 0.44 0.00 83 1023.1
20180926054510 50 224 0.0 3.0 0.00 0.44 0.00 83 1023.1
20180926054010 50 248 0.0 0.0 0.00 0.44 0.00 83 1023.1
20180926053510 50 248 0.0 0.0 0.00 0.44 0.00 83 1023.1
20180926053010 50 251 0.0 0.0 0.00 0.44 0.00 83 1023.1
20180926052510 50 251 0.0 0.0 0.00 0.44 0.00 83 1023.0
20180926052010 50 252 0.0 0.0 0.00 0.44 0.00 82 1023.0
20180926051510 50 252 0.0 0.0 0.00 0.44 0.00 82 1022.9
20180926051010 50 252 0.0 0.0 0.00 0.44 0.00 82 1023.0
20180926050510 50 257 0.0 0.0 0.00 0.44 0.00 82 1023.0
20180926050010 50 257 0.0 0.0 0.00 0.44 0.00 82 1023.0
20180926045515 51 261 0.0 0.0 0.00 0.44 0.44 82 1023.0
20180926045010 51 261 0.0 0.0 0.00 0.44 0.44 82 1023.0
20180926044510 51 261 0.0 0.0 0.00 0.44 0.44 81 1023.0
20180926044010 51 261 0.0 0.0 0.00 0.44 0.44 81 1023.0
20180926043510 51 261 0.0 0.0 0.00 0.44 0.44 81 1023.1
20180926043010 51 261 0.0 0.0 0.00 0.44 0.44 81 1023.1
20180926042510 51 261 0.0 0.0 0.00 0.44 0.44 81 1023.1
20180926042010 51 261 0.0 0.0 0.00 0.44 0.44 81 1023.0
20180926041510 51 261 0.0 0.0 0.00 0.44 0.44 81 1023.0
20180926041010 51 261 0.0 0.0 0.00 0.44 0.44 81 1023.0
20180926040510 51 261 0.0 0.0 0.00 0.44 0.44 81 1022.9
20180926040010 51 261 0.0 0.0 0.00 0.44 0.44 81 1022.8
20180926035509 51 261 0.0 0.0 0.00 0.44 0.44 82 1022.8
20180926035009 52 261 0.0 0.0 0.00 0.44 0.44 82 1022.7
20180926034509 52 261 0.0 0.0 0.00 0.44 0.44 82 1022.7
20180926034009 52 261 0.0 0.0 0.00 0.44 0.44 82 1022.6
20180926033509 52 261 0.0 0.0 0.00 0.44 0.44 82 1022.6
20180926033009 52 261 0.0 0.0 0.00 0.44 0.44 82 1022.6
20180926032509 52 261 0.0 0.0 0.00 0.44 0.44 82 1022.6
20180926032009 52 259 0.0 0.0 0.00 0.44 0.44 82 1022.6
20180926031509 52 259 0.0 0.0 0.00 0.44 0.44 82 1022.6
20180926031009 52 259 0.0 2.0 0.00 0.44 0.44 81 1022.6
20180926030509 52 260 0.0 2.0 0.00 0.44 0.44 81 1022.6
20180926030009 52 334 0.0 1.0 0.00 0.44 0.44 81 1022.6
20180926025509 52 355 0.0 1.0 0.00 0.44 0.44 80 1022.6
20180926025010 52 355 0.0 0.0 0.00 0.44 0.44 79 1022.6
20180926024509 52 355 0.0 0.0 0.00 0.44 0.44 79 1022.5
20180926024009 53 355 0.0 0.0 0.00 0.44 0.44 79 1022.4
20180926023509 53 355 0.0 0.0 0.00 0.44 0.44 79 1022.3
20180926023009 53 355 0.0 0.0 0.00 0.44 0.44 78 1022.3
20180926022509 53 355 0.0 0.0 0.00 0.44 0.44 78 1022.3
20180926022009 53 355 0.0 0.0 0.00 0.44 0.44 78 1022.3
20180926021510 53 355 0.0 0.0 0.00 0.44 0.44 78 1022.2
20180926021009 54 355 0.0 0.0 0.00 0.44 0.44 78 1022.0
20180926020509 54 355 0.0 0.0 0.00 0.44 0.44 79 1022.0
20180926020009 54 355 0.0 0.0 0.00 0.44 0.44 78 1021.8
20180926015509 54 355 0.0 0.0 0.00 0.44 0.44 78 1021.8
20180926015009 54 355 0.0 0.0 0.00 0.44 0.44 78 1021.7
20180926014510 55 355 0.0 0.0 0.00 0.44 0.44 78 1021.7
20180926014009 55 355 0.0 0.0 0.00 0.44 0.44 78 1021.7
20180926013509 55 355 0.0 0.0 0.00 0.44 0.44 78 1021.6
20180926013009 55 355 0.0 0.0 0.00 0.44 0.44 78 1021.5
20180926012509 55 355 0.0 0.0 0.00 0.44 0.44 77 1021.4
20180926012009 56 355 0.0 0.0 0.00 0.44 0.44 77 1021.3
20180926011510 56 355 0.0 0.0 0.00 0.44 0.44 77 1021.3
20180926011009 56 355 0.0 0.0 0.00 0.44 0.44 76 1021.2
20180926010509 56 355 0.0 0.0 0.00 0.44 0.44 76 1021.2
20180926010010 56 355 0.0 0.0 0.00 0.44 0.44 76 1021.2
20180926005510 56 355 0.0 0.0 0.00 0.44 0.44 76 1021.0
20180926005009 56 355 0.0 0.0 0.00 0.44 0.44 77 1020.9
20180926004510 56 355 0.0 0.0 0.00 0.44 0.44 76 1020.8
20180926004010 56 355 0.0 0.0 0.00 0.44 0.44 75 1020.7
20180926003509 57 355 0.0 0.0 0.00 0.44 0.44 74 1020.5
20180926003010 57 355 0.0 0.0 0.00 0.44 0.44 72 1020.5
20180926002510 58 355 0.0 0.0 0.00 0.44 0.44 71 1020.2
20180926002010 58 355 0.0 0.0 0.00 0.44 0.44 69 1020.1
20180926001510 59 355 0.0 1.0 0.00 0.44 0.44 68 1020.1
20180926001010 59 355 0.0 1.0 0.00 0.44 0.44 67 1020.0
20180926000510 59 350 0.0 1.0 0.00 0.44 0.44 66 1020.0
20180926000010 60 337 0.0 3.0 0.00 0.44 0.44 65 1019.9
20180925235510 60 336 0.0 3.0 0.00 0.44 0.44 64 1019.9
20180925235010 60 336 2.0 3.0 0.00 0.44 0.44 63 1019.7
20180925234510 61 0 0.0 5.0 0.00 0.44 0.44 63 1019.6
20180925234010 61 340 1.0 5.0 0.00 0.44 0.44 61 1019.5
20180925233510 61 0 1.0 7.0 0.00 0.44 0.44 61 1019.4
20180925233010 61 5 1.0 7.0 0.00 0.44 0.44 61 1019.4
20180925232510 61 338 1.0 10.0 0.00 0.44 0.44 60 1019.4
20180925232010 61 300 1.0 10.0 0.00 0.44 0.44 60 1019.4
20180925231510 61 12 2.0 10.0 0.00 0.44 0.44 60 1019.4
20180925231010 62 258 1.0 10.0 0.00 0.44 0.44 61 1019.3
20180925230510 62 350 4.0 10.0 0.00 0.44 0.44 60 1019.1
20180925230010 62 9 3.0 9.0 0.00 0.44 0.44 61 1019.1
20180925225510 62 293 1.0 6.0 0.00 0.44 0.44 61 1019.0
20180925225010 62 318 1.0 10.0 0.00 0.44 0.44 61 1018.9
20180925224510 62 345 3.0 10.0 0.00 0.44 0.44 61 1018.9
20180925224009 62 17 5.0 10.0 0.00 0.44 0.44 61 1019.0
20180925223509 62 275 1.0 9.0 0.00 0.44 0.44 61 1019.0
20180925223009 62 339 1.0 12.0 0.00 0.44 0.44 61 1018.9
20180925222509 62 315 1.0 12.0 0.00 0.44 0.44 60 1018.9
20180925222009 62 339 3.0 14.0 0.00 0.44 0.44 59 1018.9
20180925221509 62 350 4.0 14.0 0.00 0.44 0.44 59 1018.9
20180925221009 62 14 5.0 14.0 0.00 0.44 0.44 59 1018.8
20180925220509 62 338 4.0 13.0 0.00 0.44 0.44 60 1018.8
20180925220009 63 351 3.0 12.0 0.00 0.44 0.44 59 1018.8
20180925215509 63 30 6.0 12.0 0.00 0.44 0.44 59 1018.5
20180925215009 63 9 3.0 12.0 0.00 0.44 0.44 59 1018.4
20180925214509 63 325 3.0 9.0 0.00 0.44 0.44 60 1018.3
20180925214009 63 9 1.0 9.0 0.00 0.44 0.44 59 1018.4
20180925213509 63 250 3.0 16.0 0.00 0.44 0.44 58 1018.3
20180925213009 63 345 5.0 16.0 0.00 0.44 0.44 58 1018.3
20180925212509 63 291 4.0 12.0 0.00 0.44 0.44 61 1018.3
20180925212009 63 258 2.0 12.0 0.00 0.44 0.44 64 1018.2
20180925211509 63 350 2.0 13.0 0.00 0.44 0.44 65 1018.2
20180925211009 62 261 1.0 13.0 0.00 0.44 0.44 65 1018.1
20180925210509 62 355 2.0 12.0 0.00 0.44 0.44 65 1018.1
20180925210010 63 342 5.0 12.0 0.00 0.44 0.44 63 1017.9
20180925205509 63 30 2.0 14.0 0.00 0.44 0.44 62 1017.9
20180925205009 64 351 7.0 14.0 0.00 0.44 0.44 61 1017.8
20180925204509 65 348 5.0 14.0 0.00 0.44 0.44 61 1017.7
20180925204009 64 324 2.0 9.0 0.00 0.44 0.44 61 1017.7
20180925203509 63 323 3.0 13.0 0.00 0.44 0.44 65 1017.7
20180925203010 63 312 3.0 14.0 0.00 0.44 0.44 64 1017.7
20180925202509 63 346 5.0 14.0 0.00 0.44 0.44 66 1017.7
20180925202009 62 344 2.0 14.0 0.00 0.44 0.44 67 1017.7
20180925201510 63 0 3.0 14.0 0.00 0.44 0.44 65 1017.7
20180925201010 63 304 3.0 14.0 0.00 0.44 0.44 66 1017.7
20180925200509 62 0 2.0 12.0 0.00 0.44 0.44 69 1017.7
20180925200010 61 317 3.0 12.0 0.00 0.44 0.44 71 1017.6
20180925195509 61 219 5.0 18.0 0.00 0.44 0.44 74 1017.5
20180925195009 61 275 5.0 18.0 0.00 0.44 0.44 75 1017.5
20180925194510 60 294 2.0 15.0 0.00 0.44 0.44 77 1017.6
20180925194010 60 331 5.0 16.0 0.00 0.44 0.44 78 1017.4
20180925193510 60 275 3.0 16.0 0.00 0.44 0.44 78 1017.5
20180925193010 60 5 3.0 12.0 0.00 0.44 0.44 79 1017.5
20180925192510 60 318 2.0 12.0 0.00 0.44 0.44 79 1017.4
20180925192010 60 285 5.0 12.0 0.00 0.44 0.44 80 1017.3
20180925191510 60 319 3.0 12.0 0.00 0.44 0.44 82 1017.4
20180925191009 59 314 1.0 12.0 0.00 0.44 0.44 83 1017.4
20180925190509 59 336 2.0 10.0 0.00 0.44 0.44 83 1017.4
20180925190010 59 4 3.0 10.0 0.00 0.44 0.44 81 1017.3
20180925185510 59 279 2.0 14.0 0.00 0.44 0.44 83 1017.2
20180925185011 59 316 5.0 14.0 0.00 0.44 0.44 83 1017.1
20180925184510 59 284 1.0 16.0 0.00 0.44 0.44 83 1017.1
20180925184010 59 6 5.0 16.0 0.00 0.44 0.44 83 1017.0
20180925183510 59 8 6.0 16.0 0.00 0.44 0.44 84 1017.1
20180925183010 58 344 3.0 10.0 0.00 0.44 0.44 84 1017.3
20180925182510 58 310 3.0 13.0 0.00 0.44 0.44 84 1017.3
20180925182010 58 298 2.0 13.0 0.00 0.44 0.44 84 1017.2
20180925181510 58 332 5.0 12.0 0.00 0.44 0.44 83 1017.2
20180925181010 58 343 4.0 13.0 0.00 0.44 0.44 83 1017.2
20180925180510 58 333 3.0 16.0 0.00 0.44 0.44 82 1017.1
20180925180010 58 345 9.0 16.0 0.00 0.44 0.44 83 1016.9
20180925175510 58 358 6.0 14.0 0.00 0.44 0.44 84 1017.1
20180925175010 58 13 3.0 13.0 0.00 0.44 0.44 84 1017.1
20180925174510 57 321 2.0 10.0 0.00 0.44 0.44 85 1017.1
20180925174010 57 311 1.0 12.0 0.00 0.44 0.44 85 1017.1
20180925173510 57 13 3.0 12.0 0.00 0.44 0.44 85 1017.1
20180925173010 57 355 3.0 15.0 0.00 0.44 0.44 85 1017.1
20180925172510 57 315 1.0 15.0 0.00 0.44 0.44 85 1017.0
20180925172009 57 5 4.0 15.0 0.00 0.44 0.44 85 1016.8
20180925171509 57 344 6.0 12.0 0.00 0.44 0.44 85 1016.9
20180925171009 57 346 2.0 12.0 0.00 0.44 0.44 85 1017.0
20180925170509 57 349 5.0 12.0 0.00 0.44 0.44 85 1016.8
20180925170009 58 355 4.0 16.0 0.00 0.44 0.44 86 1016.8
20180925165509 58 0 5.0 16.0 0.00 0.44 0.44 86 1016.6
20180925165009 58 332 6.0 12.0 0.00 0.44 0.44 87 1016.4
20180925164509 58 333 3.0 12.0 0.00 0.44 0.44 89 1016.2
20180925164009 57 0 5.0 12.0 0.01 0.44 0.44 89 1016.1
20180925163510 57 331 4.0 12.0 0.04 0.44 0.44 90 1016.0
20180925163009 57 340 4.0 12.0 0.05 0.44 0.44 90 1015.9
20180925162509 57 353 3.0 10.0 0.06 0.44 0.44 90 1016.1
20180925162009 57 343 2.0 10.0 0.06 0.44 0.44 90 1016.1
20180925161509 57 233 1.0 9.0 0.06 0.44 0.44 91 1016.1
20180925161009 57 354 5.0 12.0 0.06 0.44 0.44 91 1015.7
20180925160509 57 322 1.0 14.0 0.06 0.44 0.44 91 1015.6
20180925160011 57 332 6.0 14.0 0.06 0.44 0.44 91 1015.2
20180925155510 57 345 5.0 14.0 0.06 0.44 0.44 91 1015.5
20180925155010 57 325 2.0 12.0 0.06 0.44 0.44 91 1015.4
20180925154510 57 5 4.0 12.0 0.06 0.44 0.44 91 1015.0
20180925154011 57 355 5.0 13.0 0.06 0.43 0.43 91 1014.9
20180925153510 57 352 5.0 13.0 0.03 0.40 0.40 91 1015.2
20180925153012 57 359 4.0 12.0 0.03 0.39 0.39 91 1015.6
20180925152510 57 343 2.0 6.0 0.02 0.38 0.38 91 1016.5
20180925152010 57 270 1.0 18.0 0.03 0.38 0.38 91 1016.4
20180925151511 57 267 1.0 18.0 0.05 0.38 0.38 91 1015.7
20180925151011 57 6 3.0 15.0 0.11 0.38 0.38 91 1015.1
20180925150510 57 316 4.0 15.0 0.19 0.38 0.38 91 1014.6
20180925150011 57 352 5.0 13.0 0.28 0.38 0.38 90 1014.5
20180925145511 57 309 4.0 13.0 0.36 0.38 0.38 90 1014.5
20180925145011 57 359 6.0 14.0 0.36 0.38 0.38 90 1014.4
20180925144511 57 9 7.0 14.0 0.37 0.38 0.38 90 1014.4
20180925144010 57 292 3.0 12.0 0.37 0.37 0.37 90 1014.0
20180925143511 57 306 3.0 16.0 0.37 0.37 0.37 90 1013.7
20180925143012 58 5 3.0 16.0 0.36 0.36 0.36 90 1013.4
20180925142510 58 288 6.0 16.0 0.36 0.36 0.36 89 1012.8
20180925142010 58 26 7.0 18.0 0.35 0.35 0.35 89 1013.2
20180925141510 59 348 10.0 18.0 0.33 0.33 0.33 88 1013.2
20180925141012 59 326 7.0 24.0 0.27 0.27 0.27 88 1013.2
20180925140511 60 336 6.0 24.0 0.19 0.19 0.19 88 1014.2
20180925140010 60 272 1.0 5.0 0.10 0.10 0.10 88 1014.5
20180925135510 60 260 1.0 6.0 0.02 0.02 0.02 87 1012.1
20180925135010 60 327 1.0 7.0 0.02 0.02 0.02 87 1011.6
20180925134510 60 353 1.0 7.0 0.01 0.01 0.01 86 1011.6
20180925134010 60 295 1.0 3.0 0.00 0.00 0.00 86 1012.1
20180925133510 60 322 0.0 9.0 0.00 0.00 0.00 86 1012.1
20180925133010 61 277 1.0 9.0 0.00 0.00 0.00 85 1011.6
20180925132510 61 338 3.0 9.0 0.00 0.00 0.00 85 1011.9
20180925132010 61 286 0.0 5.0 0.00 0.00 0.00 85 1011.9
20180925131510 61 275 1.0 3.0 0.00 0.00 0.00 85 1011.9
20180925131010 61 247 0.0 3.0 0.00 0.00 0.00 85 1011.5
20180925130510 61 270 0.0 3.0 0.00 0.00 0.00 85 1011.0
20180925130010 61 9 1.0 3.0 0.00 0.00 0.00 84 1011.0
20180925125510 61 5 1.0 3.0 0.00 0.00 0.00 84 1011.0
20180925125010 61 12 0.0 2.0 0.00 0.00 0.00 84 1010.9
20180925124510 61 20 0.0 5.0 0.00 0.00 0.00 84 1010.9
20180925124009 61 22 1.0 5.0 0.00 0.00 0.00 84 1010.9
20180925123509 61 21 0.0 5.0 0.00 0.00 0.00 84 1011.0
20180925123009 61 3 2.0 5.0 0.00 0.00 0.00 84 1011.0
20180925122509 61 4 2.0 6.0 0.00 0.00 0.00 84 1011.0
20180925122009 61 40 2.0 6.0 0.00 0.00 0.00 84 1011.2
20180925121509 61 325 3.0 6.0 0.00 0.00 0.00 85 1011.4
20180925121009 61 14 2.0 6.0 0.00 0.00 0.00 85 1011.5
20180925120509 61 312 0.0 6.0 0.00 0.00 0.00 85 1011.6
20180925120009 61 2 1.0 6.0 0.00 0.00 0.00 85 1011.2
20180925115509 61 13 2.0 5.0 0.00 0.00 0.00 85 1011.3
20180925115009 61 0 2.0 5.0 0.00 0.00 0.00 85 1011.4
20180925114509 61 21 1.0 3.0 0.00 0.00 0.00 85 1011.6
20180925114009 61 330 1.0 3.0 0.00 0.00 0.00 85 1011.6
20180925113509 60 355 0.0 3.0 0.00 0.00 0.00 85 1011.6
20180925113009 60 346 1.0 5.0 0.00 0.00 0.00 85 1011.5
20180925112509 60 349 1.0 5.0 0.00 0.00 0.00 85 1011.4
20180925112009 60 7 0.0 5.0 0.00 0.00 0.00 85 1011.4
20180925111509 60 24 1.0 5.0 0.00 0.00 0.00 85 1011.4
20180925111009 60 10 3.0 5.0 0.00 0.00 0.00 85 1011.2
20180925110509 60 18 2.0 3.0 0.00 0.00 0.00 85 1011.4
20180925110009 60 28 1.0 3.0 0.00 0.00 0.00 85 1011.3
20180925105509 60 1 1.0 3.0 0.00 0.00 0.00 85 1011.3
20180925105009 60 351 0.0 1.0 0.00 0.00 0.00 85 1011.3
20180925104509 60 10 0.0 3.0 0.00 0.00 0.00 85 1011.4
20180925104009 60 10 1.0 3.0 0.00 0.00 0.00 85 1011.4
20180925103509 60 20 0.0 3.0 0.00 0.00 0.00 84 1011.4
20180925103009 60 20 0.0 3.0 0.00 0.00 0.00 84 1011.4
20180925102509 60 44 0.0 2.0 0.00 0.00 0.00 84 1011.4
20180925102009 60 40 0.0 3.0 0.00 0.00 0.00 84 1011.3
20180925101510 60 28 1.0 3.0 0.00 0.00 0.00 84 1011.3
20180925101009 60 25 1.0 3.0 0.00 0.00 0.00 83 1011.4
20180925100509 60 15 1.0 5.0 0.00 0.00 0.00 83 1011.5
20180925100010 60 13 2.0 9.0 0.00 0.00 0.00 83 1011.8
20180925095510 60 357 2.0 9.0 0.00 0.00 0.00 83 1011.7
20180925095009 60 344 2.0 9.0 0.00 0.00 0.00 83 1011.8
20180925094510 60 16 2.0 10.0 0.00 0.00 0.00 83 1011.8
20180925094010 61 346 3.0 12.0 0.00 0.00 0.00 83 1011.8
20180925093510 61 4 4.0 12.0 0.00 0.00 0.00 83 1011.8
20180925093010 61 21 3.0 9.0 0.00 0.00 0.00 83 1011.7
20180925092510 61 357 4.0 9.0 0.00 0.00 0.00 83 1011.7
20180925092010 61 357 3.0 9.0 0.00 0.00 0.00 83 1011.8
20180925091510 61 1 2.0 9.0 0.00 0.00 0.00 83 1011.8
20180925091010 61 346 2.0 9.0 0.00 0.00 0.00 83 1011.8
20180925090510 61 0 2.0 7.0 0.00 0.00 0.00 83 1011.9
20180925090010 61 54 2.0 10.0 0.00 0.00 0.00 83 1012.0
20180925085509 61 322 2.0 10.0 0.00 0.00 0.00 82 1011.9
20180925085010 61 16 3.0 9.0 0.00 0.00 0.00 83 1012.0
20180925084510 61 13 1.0 10.0 0.00 0.00 0.00 82 1012.0
20180925084010 61 5 2.0 10.0 0.00 0.00 0.00 82 1012.2
20180925083510 61 5 3.0 10.0 0.00 0.00 0.00 82 1012.2
20180925083010 61 336 3.0 12.0 0.00 0.00 0.00 82 1012.2
20180925082510 61 355 5.0 12.0 0.00 0.00 0.00 82 1012.3
20180925082010 61 10 1.0 10.0 0.00 0.00 0.00 82 1012.2
20180925081510 61 27 2.0 10.0 0.00 0.00 0.00 81 1012.4
20180925081010 61 25 3.0 10.0 0.00 0.00 0.00 81 1012.4
20180925080510 61 22 2.0 10.0 0.00 0.00 0.00 81 1012.5
20180925080010 61 40 1.0 10.0 0.00 0.00 0.00 81 1012.7
20180925075510 62 336 3.0 10.0 0.00 0.00 0.00 81 1012.5
20180925075010 62 344 4.0 10.0 0.00 0.00 0.00 81 1012.5
20180925074510 62 26 3.0 12.0 0.00 0.00 0.00 81 1012.5
20180925074010 62 345 3.0 12.0 0.00 0.00 0.00 81 1012.4
20180925073510 62 333 3.0 12.0 0.00 0.00 0.00 80 1012.4
20180925073009 62 335 2.0 12.0 0.00 0.00 0.00 80 1012.3
20180925072509 62 23 2.0 7.0 0.00 0.00 0.00 80 1012.2
20180925072009 62 12 3.0 7.0 0.00 0.00 0.00 80 1012.3
20180925071509 62 356 3.0 9.0 0.00 0.00 0.00 80 1012.3
20180925071009 63 1 3.0 10.0 0.00 0.00 0.00 80 1012.2